Weather History for Haines, AK

Change the Weather History Date:

Tuesday, November 29, 2011

  Actual Average Record
Temperature  
Mean Temperature 30 °F -  
Max Temperature 37 °F 31 °F 48 °F (2002)
Min Temperature 23 °F 24 °F 8 °F (1985)
Degree Days  
Heating Degree Days 34    
Moisture  
Dew Point 28 °F    
Average Humidity 90    
Maximum Humidity 100    
Minimum Humidity 85    
Precipitation  
Precipitation 0.00 in - - ()
Sea Level Pressure  
Sea Level Pressure 30.09 in    
Wind  
Wind Speed 10 mph (NW)    
Max Wind Speed 15 mph    
Max Gust Speed 23 mph    
Visibility 10 miles    
Events Rain    
Averages and records for this station are not official NWS values.
T = Trace of Precipitation, MM = Missing Value Source: NWS Daily Summary

Daily Weather History Graph

Daily Weather History Graph

Search for Another Location

Airport:

Trip Planner

Search our weather history database for the weather conditions in past years. The results will help you decide how hot, cold, wet, or windy it might be!

Date:

Astronomy

Nov. 29, 2011 Rise Set
Actual Time 8:26 AM AKST 3:13 PM AKST
Civil Twilight 7:35 AM AKST 4:04 PM AKST
Nautical Twilight 6:42 AM AKST 4:58 PM AKST
Astronomical Twilight 5:53 AM AKST 5:47 PM AKST
Moon 11:47 AM AKST (11/29) 8:51 PM AKST (11/29)
Length of Visible Light 8h 29m
Length of Day
6h 46m
Waxing Crescent, 25% of the Moon is Illuminated
Nov 29
Waxing Crescent
Dec 2
First Quarter
Dec 10
Full
Dec 17
Last Quarter
Dec 24
New

Hourly Weather History & Observations

Time (AKST) Temp. Windchill Dew Point Humidity Pressure Visibility Wind Dir Wind Speed Gust Speed Precip Events Conditions
12:11 AM 37.4 °F 30.3 °F 33.8 °F 87% 29.82 in 10.0 mi East 10.4 mph 23.0 mph 0.00 in Rain Light Rain
12:38 AM 37.4 °F 31.4 °F 33.8 °F 87% 29.83 in 10.0 mi East 8.1 mph - 0.00 in Rain Light Rain
12:54 AM 37.0 °F 29.8 °F 34.0 °F 89% 29.84 in 10.0 mi ESE 10.4 mph 19.6 mph 0.00 in   Overcast
1:26 AM 37.4 °F 30.3 °F 33.8 °F 87% 29.84 in 10.0 mi ENE 10.4 mph 18.4 mph N/A   Overcast
1:54 AM 37.0 °F 31.0 °F 33.1 °F 86% 29.86 in 10.0 mi East 8.1 mph 20.7 mph N/A   Mostly Cloudy
2:54 AM 37.0 °F 31.0 °F 33.1 °F 86% 29.88 in 10.0 mi East 8.1 mph 16.1 mph N/A   Mostly Cloudy
3:54 AM 37.0 °F 32.4 °F 33.1 °F 86% 29.90 in 10.0 mi Variable 5.8 mph 18.4 mph N/A   Overcast
4:02 AM 37.4 °F 33.8 °F 33.8 °F 87% 29.89 in 10.0 mi East 4.6 mph - N/A   Overcast
4:13 AM 37.4 °F 32.8 °F 33.8 °F 87% 29.90 in 10.0 mi ENE 5.8 mph - N/A   Mostly Cloudy
4:54 AM 37.0 °F 31.0 °F 33.1 °F 86% 29.91 in 10.0 mi ENE 8.1 mph 17.3 mph N/A   Overcast
5:54 AM 37.0 °F 31.6 °F 33.1 °F 86% 29.94 in 10.0 mi Variable 6.9 mph - N/A   Overcast
6:25 AM 37.4 °F 30.8 °F 33.8 °F 87% 29.93 in 10.0 mi ENE 9.2 mph - N/A   Scattered Clouds
6:54 AM 37.0 °F 31.6 °F 33.1 °F 86% 29.95 in 10.0 mi East 6.9 mph 16.1 mph N/A   Partly Cloudy
7:54 AM 28.9 °F 21.1 °F 26.1 °F 89% 29.97 in 10.0 mi WNW 8.1 mph - N/A   Partly Cloudy
8:26 AM 28.4 °F 20.4 °F 26.6 °F 93% 29.97 in 9.0 mi WNW 8.1 mph - N/A   Mostly Cloudy
8:54 AM 26.1 °F 15.6 °F 25.0 °F 96% 29.99 in 10.0 mi WNW 11.5 mph - N/A   Overcast
9:24 AM 26.6 °F 15.7 °F 24.8 °F 93% 30.00 in 10.0 mi WNW 12.7 mph - N/A   Overcast
9:54 AM 28.9 °F 18.2 °F 27.0 °F 92% 30.03 in 10.0 mi WNW 13.8 mph - N/A   Mostly Cloudy
10:28 AM 26.6 °F 15.7 °F 24.8 °F 93% 30.04 in 10.0 mi WNW 12.7 mph - N/A   Scattered Clouds
10:54 AM 28.9 °F 18.2 °F 26.1 °F 89% 30.05 in 10.0 mi WNW 13.8 mph - N/A   Clear
11:54 AM 28.0 °F 17.0 °F 24.1 °F 85% 30.07 in 10.0 mi WNW 13.8 mph - N/A   Partly Cloudy
12:54 PM 27.0 °F 16.7 °F 24.1 °F 89% 30.09 in 10.0 mi West 11.5 mph - N/A   Partly Cloudy
1:54 PM 28.0 °F 17.0 °F 25.0 °F 88% 30.13 in 10.0 mi WNW 13.8 mph - N/A   Partly Cloudy
2:54 PM 28.0 °F 17.5 °F 25.0 °F 88% 30.16 in 10.0 mi WNW 12.7 mph - N/A   Scattered Clouds
3:01 PM 28.4 °F 20.4 °F 26.6 °F 93% 30.15 in 10.0 mi WNW 8.1 mph - N/A   Mostly Cloudy
3:21 PM 26.6 °F 16.8 °F 24.8 °F 93% 30.16 in 10.0 mi WNW 10.4 mph - N/A   Scattered Clouds
3:54 PM 26.1 °F 15.6 °F 23.0 °F 88% 30.19 in 10.0 mi WNW 11.5 mph - N/A   Clear
4:28 PM 26.6 °F 16.2 °F 24.8 °F 93% 30.21 in 10.0 mi WNW 11.5 mph - N/A   Mostly Cloudy
4:54 PM 28.9 °F 17.7 °F 27.0 °F 92% 30.23 in 10.0 mi WNW 15.0 mph - N/A   Mostly Cloudy
5:09 PM 28.4 °F 18.0 °F 26.6 °F 93% 30.23 in 10.0 mi West 12.7 mph - N/A   Mostly Cloudy
5:54 PM 27.0 °F 15.2 °F 26.1 °F 96% 30.25 in 10.0 mi WNW 15.0 mph - N/A   Partly Cloudy
6:23 PM 26.6 °F 14.7 °F 26.6 °F 100% 30.26 in 10.0 mi WNW 15.0 mph - N/A   Mostly Cloudy
6:54 PM 27.0 °F 15.6 °F 26.1 °F 96% 30.29 in 10.0 mi WNW 13.8 mph - N/A   Mostly Cloudy
7:54 PM 26.1 °F 14.5 °F 24.1 °F 92% 30.31 in 10.0 mi WNW 13.8 mph - N/A   Overcast
8:34 PM 24.8 °F 12.4 °F 23.0 °F 93% 30.34 in 10.0 mi WNW 15.0 mph - N/A   Scattered Clouds
8:54 PM 25.0 °F 12.6 °F 23.0 °F 92% 30.36 in 10.0 mi WNW 15.0 mph - N/A   Partly Cloudy
9:54 PM 26.1 °F 14.5 °F 24.1 °F 92% 30.38 in 10.0 mi WNW 13.8 mph - N/A   Mostly Cloudy
10:51 PM 24.8 °F 14.0 °F 21.2 °F 86% 30.39 in 10.0 mi WNW 11.5 mph - N/A   Mostly Cloudy
10:54 PM 25.0 °F 12.6 °F 21.9 °F 88% 30.39 in 10.0 mi WNW 15.0 mph - N/A   Mostly Cloudy
11:54 PM 23.0 °F 12.4 °F 21.0 °F 92% 30.41 in 10.0 mi WNW 10.4 mph - N/A   Overcast